Regional Weather Roundup
Issued by NWS

Home | Current Version | Previous Version | Text Only | Print | Product List | Glossary Off
Versions: 1 2 3 4 5 6 7 8 9 10 11 12 13 14 15 16 17 18 19 20 21 22 23 24 25 26 27 28 29 30 31 32 33 34 35 36 37 38 39 40 41 42 43 44 45 46 47 48 49 50

000
ASUS43 KIND 230559
RWRIN

WEATHER ROUNDUP FOR INDIANA
NATIONAL WEATHER SERVICE INDIANAPOLIS IN
200 AM EDT SAT AUG 23 2014

NOTE: "FAIR" INDICATES FEW OR NO CLOUDS BELOW 12,000 FEET WITH NO
SIGNIFICANT WEATHER AND/OR OBSTRUCTIONS TO VISIBILITY.

* - STATION DOES NOT REPORT WEATHER SUCH AS PRECIPITATION OR FOG.

+ - STATION NOT QUALITY CONTROLLED BY THE NATIONAL WEATHER SERVICE.
    USE DATA WITH CAUTION...ESPECIALLY DEWPOINT AND RELATIVE
    HUMIDITY OBSERVATIONS.

INZ001>003-010>013-019-020-230700-
NORTHWEST INDIANA

CITY           SKY/WX    TMP DP  RH WIND       PRES   REMARKS
KNOX *+        FAIR      69  67  93 CALM      29.98S
MONTICELLO +   FOG       70  70 100 CALM      29.98F VSB 1
VALPARAISO     FAIR      71  70  96 CALM      30.00S FOG
6HR MIN TEMP:  71; 6HR MAX TEMP:  80;


$$

LMZ046-743>745-230700-
SOUTHERN LAKE MICHIGAN

STATION/POSITION TIME  TEMP WIND        PRES
                       AIR  DIR/SP/G
                 (UTC) (F)  (DEG/KT/KT) (MB)
MICHIGAN CITY    0500   75   30/  1/  2   N/A

$$

INZ004-005-014>016-021>024-230700-
NORTH CENTRAL INDIANA

CITY           SKY/WX    TMP DP  RH WIND       PRES   REMARKS
GOSHEN         CLOUDY    77  74  90 SE6       29.99F
6HR MIN TEMP:  76; 6HR MAX TEMP:  83; 6HR PCP:  0.02;

PERU/GRISSOM   FAIR      73  73 100 W3        29.99F
SOUTH BEND     FAIR      74  71  91 W3        29.99F FOG
6HR MIN TEMP:  74; 6HR MAX TEMP:  82; 6HR PCP: TRACE;

WARSAW +       CLOUDY    73  72  94 CALM      30.00F

$$

INZ006>009-017-018-025>027-230700-
NORTHEAST INDIANA

CITY           SKY/WX    TMP DP  RH WIND       PRES   REMARKS
ANGOLA *+      MOCLDY    72  72 100 CALM      30.01F
FORT WAYNE     CLOUDY    73  71  93 CALM      29.99F
6HR MIN TEMP:  72; 6HR MAX TEMP:  79; 6HR PCP:  0.49;


$$

INZ028-029-035-036-043>045-051>053-230700-
WEST CENTRAL INDIANA

CITY           SKY/WX    TMP DP  RH WIND       PRES   REMARKS
GREENCASTLE +  FAIR      72  72 100 CALM      30.01S FOG
LAFAYETTE      FAIR      70  70 100 CALM      29.99R FOG
6HR MIN TEMP:  70; 6HR MAX TEMP:  80; 6HR PCP: TRACE;

TERRE HAUTE    FAIR      73  72  96 CALM      29.99S
6HR MIN TEMP:  72; 6HR MAX TEMP:  83;


$$

INZ030>032-037>040-046>048-054>057-064-065-230700-
CENTRAL INDIANA

CITY           SKY/WX    TMP DP  RH WIND       PRES   REMARKS
FRANKFORT +    FAIR     N/A N/A N/A SE3       30.01F FOG
INDIANAPOLIS   FAIR      73  70  90 CALM      29.99F
6HR MIN TEMP:  72; 6HR MAX TEMP:  81;

-EAGLE CREEK   FAIR      73  70  90 CALM      29.99F
6HR MIN TEMP:  73; 6HR MAX TEMP:  82;

KOKOMO *+      FAIR      73  70  88 W3        29.99F
MT COMFORT *+  FAIR      68 N/A N/A CALM      30.01S
SHELBYVILLE    FAIR      72  68  87 CALM      30.00S
6HR MIN TEMP:  71; 6HR MAX TEMP:  84;


$$

INZ033-034-041-042-049-050-058-059-230700-
EAST CENTRAL INDIANA

CITY           SKY/WX    TMP DP  RH WIND       PRES   REMARKS
MUNCIE         FAIR      71  69  93 CALM      30.00F
6HR MIN TEMP:  71; 6HR MAX TEMP:  79;


$$

INZ060-061-067>069-081>083-085>088-230700-
SOUTHWEST INDIANA

CITY           SKY/WX    TMP DP  RH WIND       PRES   REMARKS
EVANSVILLE     MOCLDY    77  72  84 SE5       30.00S
6HR MIN TEMP:  77; 6HR MAX TEMP:  87; 6HR PCP:  0.01;


$$

INZ062-063-066-070>080-084-089>092-230700-
SOUTH CENTRAL AND SOUTHEAST INDIANA

CITY           SKY/WX    TMP DP  RH WIND       PRES   REMARKS
BLOOMINGTON    FAIR      74  73  97 CALM      30.01S FOG
6HR MIN TEMP:  74; 6HR MAX TEMP:  82;


$$




USA.gov is the U.S. government's official web portal to all federal, state and local government web resources and services.